Regional Weather Roundup
Issued by NWS

Home | Current Version | Previous Version | Text Only | Print | Product List | Glossary On
Versions: 1 2 3 4 5 6 7 8 9 10 11 12 13 14 15 16 17 18 19 20 21 22 23 24 25 26 27
000
ASUS42 KTBW 180917
RWRFL
FLORIDA REGIONAL WEATHER ROUNDUP
NATIONAL WEATHER SERVICE TAMPA BAY RUSKIN FL
500 AM EDT FRI AUG 18 2017

NOTE: "FAIR" INDICATES FEW OR NO CLOUDS BELOW 12,000 FEET WITH NO
SIGNIFICANT WEATHER AND/OR OBSTRUCTIONS TO VISIBILITY.

FLZ001>010-012>015-112-114-115-181000-
PANHANDLE FLORIDA

CITY           SKY/WX    TMP DP  RH WIND       PRES   REMARKS
PENSACOLA      CLEAR     83  77  82 W6        30.00F
PENSACOLA NAS  CLEAR     82  78  88 W3        29.99F
MILTON NAS     CLEAR     77  76  96 NW5       30.01
CRESTVIEW      CLEAR     78  76  93 CALM      30.02S
DUKE FIELD     FAIR      78  76  94 W3        30.00S
VALPARAISO     CLEAR     80  77  92 W6        29.99S
MARY ESTHER    CLEAR     81  78  91 CALM      29.98F
PANAMA CITY    FAIR      79  77  94 CALM      29.99S
TYNDALL AFB    CLOUDY    84  78  84 NW8       29.99S
APALACHICOLA   PTCLDY    80  80 100 W3        29.99S

STATION/POSITION SKY/WX   TEMP    WIND        PRES    WAVE   SWELL
                          AIR SEA DIR/SP/G            HT/PER HT/PER
                          (F)     (DEG/KT/KT) (MB)    (FT/S) (FT/S)
30.1N   87.6W              86 86  280/ 14/ 16 1015.4F   2/ 3
29.2N   88.2W              86 87  270/ 12/ 14 1016.2
28.8N   86.0W              85 87  270/  8/ 10 1015.5F   1/ 8   2/ 8
PANAMA CITY BEAC           84     310/  7/ 10 1015.9F
TOWER C                    85                 1016.0F
28.5N   84.5W              85 86  300/  8/ 10 1015.4F   1/ 7

$$
FLZ011-016>038-118-127-128-134-139-239-181000-
NORTH FLORIDA

CITY           SKY/WX    TMP DP  RH WIND       PRES   REMARKS
MARIANNA       CLEAR     78  77  96 W5        29.99S
TALLAHASSEE    CLOUDY    79  77  94 NW3       29.99R
PERRY          CLEAR     80  76  90 CALM      29.99R
LIVE OAK       CLEAR     79  79 100 CALM      29.99S FOG
CROSS CITY     CLEAR     79  77  94 CALM      30.02S
LAKE CITY      FAIR      73  73 100 CALM      29.99R
GAINESVILLE    CLEAR     75  73  93 CALM      30.01S
WILLISTON      FOG       77  77 100 CALM      29.98S VSB 1/4
PALATKA        FAIR      73  73 100 CALM      29.99S
MAYPORT NAS    PTCLDY    79  76  90 W5        29.97F
JACKSONVILLE   CLEAR     76  76 100 W3        29.97S
JAX NAS        CLEAR     78  75  90 SW7       29.98F
JAX CECIL      CLEAR     75  75 100 CALM      29.98S
FERNANDINA BEA FAIR      79  73  83 W6        29.95F
ST AUGUSTINE   CLEAR     76  75  97 SW6       29.99S
PALM COAST     FAIR      75  20  12 CALM      29.98S

STATION/POSITION SKY/WX   TEMP    WIND        PRES    WAVE   SWELL
                          AIR SEA DIR/SP/G            HT/PER HT/PER
                          (F)     (DEG/KT/KT) (MB)    (FT/S) (FT/S)
SHELL POINT      NOT AVBL
KEATON BEACH               85     290/ 11/ 13 1014.8S
CEDAR KEY                  85     280/  6/  7 1015.5F
FERNANDINA                 81 86  230/  4/  8 1015.6F
30.7N   81.3W                 84                N/A     2/ 8
MAYPORT                    79 83  220/  5/  6 1015.2F
31.4N   80.9W              83 85  230/ 12/ 14 1014.1S   2/ 3
ST AUGUSTINE               77 81  250/  6/  7 1015.3F

$$
FLZ040-043>046-052-053-057-058-063-144-181000-
INTERIOR CENTRAL FLORIDA

CITY           SKY/WX    TMP DP  RH WIND       PRES   REMARKS
OCALA          FOG       76  76 100 CALM      30.00R VSB<1/4
THE VILLAGES     N/A     77  77 100 CALM      29.90S
LEESBURG       CLEAR     78  77  96 CALM      30.00F
SANFORD        CLEAR     77  74  90 SW6       30.00R
ORLANDO EXEC   PTCLDY    76  75  97 S5        30.00S
ORLANDO INTL   MOCLDY    73  73 100 CALM      30.01R
KISSIMMEE      PTCLDY    74  73  97 CALM      30.01S
WINTER HAVEN   PTCLDY    75  73  93 CALM      30.01F
LAKELAND         N/A     73  73 100 CALM      30.01S
BARTOW         FAIR      72 N/A N/A CALM      30.01S
SEBRING        FAIR      77  74  90 CALM      30.00S
OKEECHOBEE     CLEAR     72  72 100 CALM      30.00S

$$
FLZ041-047-054-059-064-141-147-181000-
EAST CENTRAL FLORIDA

CITY           SKY/WX    TMP DP  RH WIND       PRES   REMARKS
DAYTONA BEACH  PTCLDY    75  75 100 SW3       29.99S
DELAND         CLEAR     77  75  94 SW5       29.99S
JFK SPACE CTR  MOCLDY    77  77 100 W5        29.98S
CAPE CANAVERAL MOCLDY    77  74  89 CALM      29.98S
PATRICK AFB    CLOUDY    78  74  87 W8        30.00R
MELBOURNE      CLOUDY    77  74  90 W5        30.00R
VERO BEACH     CLEAR     77  73  87 CALM      30.00S
FT PIERCE      CLEAR     74  74 100 CALM      30.00S
STUART         MOCLDY    79  79 100 W3        30.02R

STATION/POSITION SKY/WX   TEMP    WIND        PRES    WAVE   SWELL
                          AIR SEA DIR/SP/G            HT/PER HT/PER
                          (F)     (DEG/KT/KT) (MB)    (FT/S) (FT/S)
28.5N   80.2W              82 85  230/  8/ 10 1016.8
28.9N   78.5W              85 85  180/ 12/ 14 1015.6R   2/ 7   2/ 7
TRIDENT PIER               79 85  230/  5/  5 1017.1F
28.4N   80.5W                 84                N/A     1/ 8
27.5N   80.2W                 83                N/A     1/ 9

$$
FLZ050-056-061-142-242-148-248-149-249-151-251-155-255-
160-260-181000-
WEST CENTRAL FLORIDA

CITY           SKY/WX    TMP DP  RH WIND       PRES   REMARKS
CRYSTAL RIVER  FAIR      75  75 100 CALM      29.99R
INVERNESS      FAIR      75  75 100 CALM      30.01R
BROOKSVILLE      N/A     76  75  97 CALM      30.01
CLEARWATER AIR FAIR      79  77  94 CALM      29.99S
ST PETE CLEARW CLEAR     80  76  87 CALM      29.99F
TAMPA INTL     PTCLDY    80  75  84 CALM      30.00F
TAMPA EXEC     CLEAR     75  73  94 CALM      30.01S FOG
PLANT CITY     CLEAR     75  75 100 CALM      30.03R
MACDILL AFB    CLEAR     76  76 100 CALM      29.99F
PETER O KNIGHT MOCLDY    81  81 100 CALM      30.00S
ST PETERSBURG  CLEAR     82  76  81 W5        29.98S
SARASOTA       PTCLDY    76  74  93 SE3       29.98F
VENICE         FAIR      77  75  94 E3        30.00S

STATION/POSITION SKY/WX   TEMP    WIND        PRES    WAVE   SWELL
                          AIR SEA DIR/SP/G            HT/PER HT/PER
                          (F)     (DEG/KT/KT) (MB)    (FT/S) (FT/S)
CLEARWATER BEACH           82 89  110/  4/  4 1015.9F
MIDDLE TAMPA BAY           80     200/  4/  5 1015.8F
VENICE                     78 89  120/  3/  4 1016.0F

$$
FLZ066-069-070-075>078-162-262-165-265-181000-
SOUTHWEST FLORIDA AND KEYS

CITY           SKY/WX    TMP DP  RH WIND       PRES   REMARKS
PUNTA GORDA    CLOUDY    76  75  97 NE5       30.01F
FT MYERS       PTCLDY    77  76  96 NE3       29.98F
SOUTHWEST INTL CLEAR     76  73  91 E3        30.00R
NAPLES         PTCLDY    78  75  90 CALM      29.98R
MARCO ISLAND   CLEAR    N/A N/A N/A E3        29.98S
IMMOKALEE      FAIR      75  75 100 CALM      30.00S
MARATHON       CLEAR     85  77  77 E7        29.96F HX  95
KEY WEST NAS   PTCLDY    84  76  76 SE10      29.97F
KEY WEST INTL  PTCLDY    85  76  74 SE8       29.97F

STATION/POSITION SKY/WX   TEMP    WIND        PRES    WAVE   SWELL
                          AIR SEA DIR/SP/G            HT/PER HT/PER
                          (F)     (DEG/KT/KT) (MB)    (FT/S) (FT/S)
NAPLES                        90  100/  5/  7 1015.3R
DRY TORTUGAS               83     210/  4/  6 1015.2S
SAND KEY                   85                 1015.3F

$$
FLZ067-068-071>074-168-172>174-181000-
SOUTHEAST FLORIDA

CITY           SKY/WX    TMP DP  RH WIND       PRES   REMARKS
W PALM BEACH   PTCLDY    85  74  69 SE6       29.99F
FT LAUDER-EXEC PTCLDY    82  76  81 CALM      29.98F
FT LAUDERDALE  PTCLDY    83  76  79 SE7       29.98S
POMPANO BEACH  CLEAR     85  76  74 SE7       29.98F
PEMBROKE PINES PTCLDY    82  75  79 CALM      30.00F
OPA LOCKA      CLEAR     83  78  85 NE3       29.99F
MIAMI          PTCLDY    85  74  69 E6        29.98F
WEST KENDALL   PTCLDY    80  76  87 CALM      29.98F
HOMESTEAD      PTCLDY    80  76  88 CALM      29.97F

STATION/POSITION SKY/WX   TEMP    WIND        PRES    WAVE   SWELL
                          AIR SEA DIR/SP/G            HT/PER HT/PER
                          (F)     (DEG/KT/KT) (MB)    (FT/S) (FT/S)
PORT EVERGLADES            85     120/  5/  9 1015.3F
VIRGINIA KEY               85 90  100/  8/  9 1014.7F
LAKE WORTH                        160/ 10/ 11   N/A
FOWEY ROCKS                84 86  120/ 11/ 13 1015.7F
SETTLEMENT POINT           83     140/  6/  7 1015.9F

$$





USA.gov is the U.S. government's official web portal to all federal, state and local government web resources and services.